BREEZE-KM DEB, 41719

Orbit data source: Space-Track

BREEZE-KM DEB, 41719 is space debris in LEO originally from a launch on Tue, 31 Mar 2015 UTC launched from the Plesetsk Missile And Space Complex (PKMTR). Debris objects in space refer to the collection of defunct objects orbiting the Earth. Examples of debris include non-operational satellites, rocket bodies, and fragments generated from explosions, collisions, or faulty payload assembly.

Loading next visibility...
Identifier
41719, 2015-020G
Orbit
LEO
Country
Flag of CISCIS
Related business
Manufacturer
Khrunichev
Mission
Spacecraft
Bus & Motor
Unknown
Mass
Unknown
Launch date (UTC)
2015-03-31 (11 years ago)
Launch vehicle
Unknown
Launch site
Plesetsk Missile And Space Complex (PKMTR)
Object type
Payload
Rocket body
Debris
Shape & HBR
Unknown shape, 0.1 m
Radar Cross Section
Medium (>0.1 m² and <1 m²)

Expand to show TLE details & history
Last TLE update: 1 week ago

TLE from 1 week ago
0 BREEZE-KM DEB
1 41719U 15020G   26152.00330633  .00000044  00000-0  13614-3 0  9990
2 41719  82.4912 244.0049 0222486 170.1533 190.4037 12.75192482510390
Epoch: 2026-06-01T00:04Z
TLE epoch observation values (Epoch: 2026-06-01T00:04:45.666Z)
Latitude
0.00002°
Longitude
-6.68224°
Altitude
1,533.11 km
Speed
7.021 km/s
True Right ascension
16h 16m 01s
True Declination
0° 00' 00"
Sunlit
Object was in full shadow at epoch
Visualization orbit readout
Latitude
Unknown
Longitude
Unknown
Altitude
Unknown
Speed
Unknown
Apparent Right ascension
Unknown
Apparent Declination
Unknown
Sunlit
N/A
Visualization observer readout
Local Sidereal Time
03:49:20
Azimuth
Unknown
Elevation
Unknown
Doppler factor
Unknown
Orbital elements
Apogee altitude
1,530.286 km
Perigee altitude
1,186.042 km
Semi-major axis
7,736.301 km
Eccentricity
0.02225
Inclination
82.4912°
RAAN
244.0049°
Arg. of periapsis
170.1533°
True anomaly
189.95558°
Mean anomaly
190.4037°
Eccentric anomaly
190.17843°
Mean motion
3.18965 °/min
Orbital period
112.87 mins
BSTAR
0.00013614
Loading maneuver chart data...
Computing Atmospheric mass density...
Loading historical data...
Loading historical data...
Loading historical data...
Loading historical data...
Loading historical data...
Loading historical data...
Loading historical data...

Documentation

Showing up to 5 results
|